This is the latest recevied weather packets stored in our database for station/object WK1F-2. If no packets are shown the sender has not sent any weather packets the latest 10 day(s).
| Time | Temp. | Humidity | Pressure | Rain* | Wind** | Luminosity | Snow |
|---|---|---|---|---|---|---|---|
| 1777992444 | 23.89° C | 55% | 1017.3 hPa | 0 mm | - | - | - |
| 1777992144 | 23.89° C | 54% | 1017.4 hPa | 0 mm | - | - | - |
| 1777991844 | 23.89° C | 53% | 1017.3 hPa | 0 mm | - | - | - |
| 1777991544 | 23.89° C | 55% | 1017.3 hPa | 0 mm | - | - | - |
| 1777991244 | 23.89° C | 54% | 1017.3 hPa | 0 mm | - | - | - |
| 1777990944 | 23.33° C | 55% | 1017.4 hPa | 0 mm | - | - | - |
| 1777990644 | 23.33° C | 58% | 1017.4 hPa | 0 mm | - | - | - |
| 1777990344 | 23.33° C | 59% | 1017.2 hPa | 0 mm | - | - | - |
| 1777990044 | 23.33° C | 58% | 1017.3 hPa | 0 mm | - | - | - |
| 1777989744 | 23.33° C | 61% | 1017.2 hPa | 0 mm | - | - | - |
| 1777989444 | 22.78° C | 61% | 1017.2 hPa | 0 mm | - | - | - |
| 1777989144 | 22.78° C | 62% | 1017.2 hPa | 0 mm | - | - | - |
| 1777988844 | 22.78° C | 62% | 1017.2 hPa | 0 mm | - | - | - |
| 1777988544 | 22.78° C | 63% | 1017.2 hPa | 0 mm | - | - | - |
| 1777988244 | 22.78° C | 64% | 1017.2 hPa | 0 mm | - | - | - |
| 1777987943 | 22.78° C | 64% | 1017.2 hPa | 0 mm | - | - | - |
| 1777987643 | 22.22° C | 65% | 1017.1 hPa | 0 mm | - | - | - |
| 1777987343 | 22.22° C | 66% | 1017.1 hPa | 0 mm | - | - | - |
| 1777987043 | 22.22° C | 69% | 1017.1 hPa | 0 mm | - | - | - |
| 1777986743 | 21.67° C | 69% | 1017 hPa | 0 mm | - | - | - |
| 1777986443 | 21.11° C | 72% | 1016.9 hPa | 0 mm | - | - | - |
| 1777986143 | 21.11° C | 76% | 1016.8 hPa | 0 mm | - | - | - |
| 1777985843 | 20.56° C | 79% | 1016.8 hPa | 0 mm | - | - | - |
| 1777985543 | 20° C | 84% | 1016.8 hPa | 0 mm | - | - | - |
| 1777985243 | 19.44° C | 89% | 1016.7 hPa | 0 mm | - | - | - |
* Rain latest hour (hover to see other rain measurements)
** Current wind speed in m/s (hover to see current wind gust speed)